Theta_e
319 321 322 323 322 322 321 322 322 325 327 329 329 328 324 328 327 321 317 322 321 328 321 318 316 312 312 309 308 309 304 303 302 301 304 306 306 305 309 311 315 318 316 321 332
316 318 320 323 323 321 321 322 323 322 325 328 328 327 326 325 315 315 327 332 330 329 313 315 312 310 305 306 308 305 304 303 304 304 303 305 308 306 307 310 311 315 321 328 330
316 316 318 321 323 322 321 321 322 321 323 326 327 326 324 315 306 311 329 333 331 324 315 316 315 311 306 305 302 302 302 303 303 303 303 303 304 307 306 306 311 312 318 325 325
317 318 316 320 321 322 321 321 320 321 321 325 326 324 319 314 299 316 328 331 331 318 312 312 312 309 306 303 304 300 302 302 303 302 302 302 303 303 306 309 309 315 322 325 324
315 316 317 319 320 321 321 319 319 320 319 324 325 321 315 306 308 320 323 330 326 311 313 310 310 309 306 306 303 303 301 302 301 301 302 301 302 303 304 308 309 314 322 324 326
314 315 316 317 319 320 320 320 321 321 319 323 325 321 312 304 317 317 315 326 321 310 313 311 309 310 308 306 306 305 301 300 299 300 301 300 300 301 304 308 311 316 319 323 325
314 315 316 317 318 319 319 319 319 320 320 323 325 319 311 309 313 315 316 322 316 314 309 315 313 312 309 303 307 301 300 298 297 296 298 302 297 298 304 308 310 314 318 321 324
314 314 315 316 317 317 317 318 319 318 320 320 323 315 306 312 317 315 311 308 313 316 314 313 315 311 310 310 306 299 296 293 295 295 297 299 297 303 303 306 307 312 316 320 322
313 314 315 315 316 316 317 316 318 318 319 321 315 311 301 314 310 313 308 310 308 308 309 308 310 303 308 304 298 297 293 295 295 299 298 299 298 304 302 303 304 310 315 318 320
312 313 313 313 314 316 316 315 317 317 317 320 316 304 302 302 309 310 307 306 304 304 300 299 297 297 294 302 290 294 295 296 298 298 296 296 298 301 299 301 304 306 312 316 318
312 312 312 312 313 313 313 310 306 303 307 306 302 306 302 309 310 306 305 301 301 304 293 295 294 291 295 302 303 302 302 300 298 297 296 296 297 301 300 298 300 303 306 312 316
312 311 311 312 313 313 311 302 305 308 301 309 305 308 305 307 298 302 306 297 300 294 294 293 292 300 298 296 295 297 298 298 294 294 295 295 295 299 300 299 301 301 304 306 311
310 311 310 310 311 309 305 304 313 313 300 298 304 301 300 306 298 298 302 300 296 291 293 294 296 296 294 292 292 292 293 292 294 292 294 293 293 295 299 299 301 301 303 303 305
310 309 309 309 303 306 302 309 313 311 289 290 298 298 299 305 296 303 305 300 295 292 293 293 293 292 293 291 293 288 293 292 290 291 289 291 290 295 297 297 296 300 302 302 302
308 308 309 309 304 302 304 311 312 305 279 291 296 305 300 301 296 296 301 299 291 291 293 290 290 291 290 292 294 291 292 292 290 290 288 288 287 293 291 293 296 298 302 303 304
306 307 308 306 306 306 308 312 307 285 280 287 294 292 294 298 297 297 296 298 297 293 294 290 294 294 294 291 294 291 291 290 289 289 283 288 287 290 292 293 297 301 302 303 305
306 307 306 306 300 309 308 305 284 281 287 284 286 291 294 293 292 293 292 290 289 287 287 288 289 291 293 290 291 292 290 284 282 282 282 284 284 290 295 296 296 299 301 301 302
305 306 305 304 306 306 302 293 280 284 285 290 291 291 290 292 292 292 292 289 291 294 290 286 283 289 292 292 289 290 291 285 278 279 284 282 283 290 296 298 297 297 297 297 298
305 303 301 303 306 305 293 283 284 286 289 288 291 288 287 291 289 289 289 290 292 294 289 287 284 290 290 291 293 288 286 291 282 276 282 286 288 292 296 295 294 295 296 297 298
299 296 296 304 305 300 287 284 287 293 293 292 287 290 284 288 288 288 288 293 292 292 295 290 283 288 289 292 291 290 292 284 285 280 279 282 283 288 292 293 293 294 296 298 298
296 289 299 302 304 293 283 285 290 293 295 292 291 289 289 289 291 289 288 293 294 290 292 293 288 285 288 286 287 287 287 287 289 286 282 280 285 293 291 293 293 295 294 296 297
294 284 303 304 289 288 285 289 294 292 297 293 296 296 292 292 291 290 288 293 296 293 289 291 288 283 285 289 289 289 289 289 284 280 282 281 285 290 292 292 292 295 294 295 296
285 287 302 302 284 285 290 290 290 291 293 293 293 296 295 291 286 292 291 295 296 293 291 291 287 282 282 287 288 287 287 290 290 287 282 284 287 290 291 292 293 294 296 294 296
287 283 288 296 294 289 288 287 286 294 293 293 294 295 293 290 291 288 289 292 295 294 295 294 288 287 282 285 287 284 286 289 289 285 284 285 289 290 290 292 294 295 295 295 297
286 284 287 285 287 290 291 289 286 287 291 293 292 293 292 289 288 288 290 289 292 295 293 293 287 286 285 288 289 288 286 286 286 288 285 288 287 292 293 293 295 296 295 294 295
285 284 287 287 291 289 291 288 287 289 290 289 291 293 294 290 291 286 290 290 289 292 291 290 286 285 282 285 288 286 288 288 288 289 289 290 288 293 297 297 293 294 294 294 295
290 290 288 288 287 288 288 289 289 292 292 294 294 293 292 294 295 293 295 294 293 291 290 288 285 286 282 283 286 283 286 288 289 291 290 286 291 293 292 292 294 295 294 294 295
Wind_Speed
17 18 20 20 19 17 17 16 8 12 15 14 15 13 12 7 6 5 16 8 6 10 7 8 4 5 4 4 2 2 4 7 6 6 2 7 9 3 2 7 3 5 1 4 19
15 16 19 21 19 20 18 15 11 12 14 17 16 12 8 7 6 14 6 8 8 12 11 15 12 10 4 4 3 3 5 8 3 3 1 5 9 10 7 7 6 6 4 7 17
16 15 16 20 20 19 19 17 11 10 15 19 16 18 12 12 5 11 13 11 11 12 10 9 12 6 8 6 5 4 6 5 4 4 3 2 6 7 7 8 11 14 13 14 17
16 16 16 16 21 21 21 16 13 14 15 22 20 24 18 5 11 4 20 15 12 13 12 11 10 10 8 12 7 8 4 4 6 3 4 4 4 6 11 6 3 7 17 18 19
15 15 15 16 19 21 20 21 18 15 11 24 25 25 11 3 9 4 13 18 17 13 19 16 17 12 12 10 8 7 6 6 4 4 2 4 7 7 10 8 2 8 16 19 18
16 15 16 16 18 20 21 21 16 15 12 22 27 23 9 17 3 3 14 11 21 20 20 18 15 9 8 7 13 7 4 5 3 2 4 4 2 5 4 10 5 10 15 17 19
15 17 17 16 17 18 19 20 21 15 17 21 28 17 15 21 2 3 14 15 13 21 20 17 13 14 12 9 5 4 8 2 3 4 4 5 5 10 5 9 9 11 11 13 15
15 16 16 16 16 18 19 18 24 18 19 23 28 8 9 7 6 5 6 2 6 9 15 8 9 9 4 10 5 4 3 5 5 6 4 6 13 11 11 11 13 10 9 12 14
14 15 12 13 16 19 19 16 24 18 22 24 19 11 7 13 9 11 6 7 8 5 7 5 7 5 6 11 5 3 7 12 5 10 5 10 10 6 7 11 12 12 12 12 13
12 15 13 11 8 14 20 16 23 15 19 16 12 11 7 15 13 13 4 10 7 12 8 5 4 8 5 12 9 9 9 6 11 8 7 9 14 4 5 8 10 11 12 13 13
13 13 15 11 11 8 11 7 12 6 19 19 13 19 17 14 16 11 10 8 2 17 8 6 8 13 20 19 8 11 10 12 8 4 7 14 14 15 9 6 10 11 12 13 16
14 14 13 12 10 8 9 11 14 5 14 16 24 17 14 27 14 17 20 10 16 13 9 10 14 19 16 12 9 11 10 11 2 3 6 6 15 15 10 9 12 12 13 15 14
15 13 9 5 7 5 8 19 14 4 6 5 18 14 16 18 18 26 34 17 19 16 18 18 14 14 12 11 13 9 12 7 2 3 3 5 16 16 11 13 13 12 13 11 16
15 10 7 7 2 5 12 13 12 5 5 9 16 9 10 13 11 24 23 18 11 22 15 11 7 17 16 16 15 9 8 4 4 2 7 2 9 10 16 16 12 16 15 17 16
13 12 11 13 1 7 6 11 12 6 7 15 11 4 12 25 21 13 8 3 18 17 10 9 14 18 16 16 13 4 9 7 3 4 4 6 7 4 2 12 14 16 18 18 18
14 14 13 8 8 10 2 15 10 8 11 11 11 14 20 17 16 17 8 6 6 11 3 5 3 13 13 5 11 12 8 6 3 2 9 13 10 9 11 14 17 21 22 21 21
16 15 13 6 4 6 5 10 8 9 4 7 12 17 25 25 17 27 22 17 14 15 16 5 7 3 6 12 6 6 14 5 6 7 7 3 7 14 11 13 14 14 11 11 11
15 11 8 8 4 7 4 9 10 8 7 4 23 24 16 25 18 27 25 19 8 17 19 16 10 11 7 9 12 17 16 6 8 5 2 2 9 5 13 13 9 11 9 7 6
11 5 6 8 9 6 7 11 13 6 11 15 27 25 9 14 13 22 26 27 14 18 16 18 6 3 3 4 17 11 11 5 7 2 2 6 5 11 18 14 9 11 10 11 11
4 2 10 6 10 6 6 9 8 14 17 27 16 16 13 23 19 18 25 24 17 12 6 12 9 3 4 4 2 10 13 7 3 5 6 4 5 9 3 7 4 4 9 11 9
4 3 5 14 11 5 7 7 4 15 19 26 22 21 19 35 25 29 37 10 22 14 5 14 7 6 5 10 14 7 11 4 6 4 3 2 3 5 2 5 9 8 6 6 4
5 5 2 15 8 3 6 7 7 21 17 7 16 18 28 30 22 20 25 11 22 19 14 4 7 10 13 3 2 3 12 14 8 6 2 3 6 2 3 2 6 9 5 2 2
4 2 3 10 10 7 7 5 2 23 25 14 14 10 23 21 13 13 11 7 26 19 17 9 4 9 6 3 1 12 5 18 6 2 9 7 5 2 4 5 2 5 4 1 2
4 4 3 9 5 17 16 9 5 24 14 10 17 19 24 19 12 12 14 10 19 21 9 8 4 5 11 6 10 8 10 12 12 7 6 18 10 3 3 2 1 2 2 2 5
3 4 2 5 15 17 22 17 9 14 2 9 14 25 29 21 11 12 15 9 8 13 6 6 5 3 4 5 12 9 18 17 20 26 16 15 19 15 9 7 2 3 2 2 5
6 4 4 3 7 21 26 19 22 18 16 11 23 27 27 22 22 27 20 18 16 11 16 6 10 3 3 2 6 6 15 23 25 20 27 16 9 3 14 11 8 5 4 6 5
3 2 1 3 6 19 21 22 30 27 11 13 28 29 26 21 7 11 12 11 13 17 19 7 8 4 5 2 5 5 21 20 20 23 19 23 10 9 7 7 8 7 8 10 8
Wind_Direction
261 253 242 235 237 239 252 247 256 291 257 188 176 172 187 254 246 239 207 206 180 166 171 148 135 112 116 102 95 187 204 215 207 196 153 152 179 159 112 149 181 173 256 89 144
255 261 252 241 234 239 242 250 237 285 279 205 180 159 140 153 264 239 190 199 174 159 168 176 162 148 94 120 159 183 218 211 183 186 130 186 202 160 188 168 187 184 132 142 153
242 256 261 245 236 232 233 238 231 273 284 222 170 151 130 97 266 234 209 218 181 178 174 173 150 161 156 154 178 179 211 170 186 211 177 169 215 171 195 205 206 197 166 164 170
245 252 261 255 236 230 224 226 230 249 289 221 175 142 131 127 215 310 184 201 181 188 157 155 158 171 163 174 166 183 194 168 150 170 153 180 143 211 213 217 306 194 164 165 180
244 257 259 262 237 227 223 228 237 231 276 231 185 143 117 136 239 320 319 191 181 182 181 177 176 177 177 178 156 208 166 176 148 181 188 137 213 229 234 224 316 158 164 175 184
241 253 254 257 239 224 222 226 220 232 250 246 187 146 127 220 127 353 311 213 183 184 182 181 192 180 168 188 199 174 177 148 147 214 192 207 187 203 240 188 173 180 184 183 188
240 247 247 248 235 223 217 224 231 233 227 257 188 165 181 210 150 65 291 215 193 186 171 183 160 170 147 146 131 137 189 148 186 186 233 218 201 224 206 172 187 202 195 194 193
237 242 244 237 230 223 222 221 226 228 233 261 176 166 179 143 115 97 259 332 204 167 176 149 165 127 144 124 93 149 122 167 197 168 220 228 249 240 183 178 194 203 207 200 198
235 236 226 231 224 223 218 215 233 226 230 250 167 205 173 134 157 136 270 197 193 148 117 120 119 123 147 142 119 316 190 207 171 198 169 215 245 251 188 197 194 196 203 207 206
227 223 224 224 248 230 209 216 230 230 227 213 172 154 180 177 152 138 230 180 201 134 103 82 109 152 145 179 178 175 210 198 213 178 198 206 241 213 199 228 224 205 206 209 213
216 215 220 221 229 244 214 221 208 204 234 199 163 183 147 142 128 178 155 171 142 170 155 176 152 186 171 188 189 190 199 213 220 171 213 221 237 240 202 218 218 215 215 213 219
209 211 219 225 225 226 228 237 203 182 212 203 184 178 142 148 134 153 137 198 167 171 142 154 199 181 181 158 139 171 183 202 151 125 239 231 245 245 225 231 225 226 219 222 223
208 210 212 227 217 228 238 243 198 168 202 229 182 158 152 173 153 160 170 172 180 159 186 170 166 167 162 164 165 179 191 173 216 136 225 285 264 247 232 233 233 234 240 234 231
195 203 174 197 128 198 230 226 223 155 189 186 178 198 138 155 155 162 179 154 165 172 157 180 134 159 176 178 185 188 203 152 149 213 244 257 269 223 236 228 215 230 225 235 231
188 200 196 195 187 208 228 195 173 169 229 154 158 177 154 154 132 193 188 145 165 161 172 150 159 165 177 184 180 180 145 151 129 220 272 200 258 238 243 237 229 226 228 231 232
194 209 203 220 228 231 319 173 151 207 210 166 131 167 167 145 170 144 181 74 104 130 159 93 106 177 185 129 174 141 110 84 100 197 249 236 235 251 221 224 234 227 219 219 227
192 207 199 196 233 172 201 203 171 237 141 161 142 150 173 152 144 169 174 152 156 139 182 142 158 135 139 133 131 178 158 158 214 216 244 88 240 262 240 243 240 249 244 241 236
193 192 216 213 213 279 270 205 208 159 165 144 151 147 171 144 157 178 172 173 175 166 157 181 188 178 167 181 162 184 186 177 195 208 218 75 237 239 249 266 254 251 259 268 248
158 178 240 225 200 200 233 242 197 186 147 142 146 150 140 138 138 164 187 184 170 169 158 181 154 141 145 155 158 175 204 141 106 47 272 209 256 267 265 263 252 248 249 253 246
151 195 236 206 173 178 233 240 183 173 149 150 150 155 143 165 134 155 189 197 182 189 139 168 127 204 159 127 120 202 144 171 211 192 228 196 263 250 246 263 287 246 246 237 224
124 220 205 184 157 186 229 199 236 163 164 163 157 157 168 171 158 178 187 182 182 174 142 156 118 158 167 205 172 156 185 180 178 206 212 263 228 240 296 277 291 290 289 245 199
146 229 247 156 176 164 208 171 264 174 183 157 172 164 169 170 161 175 182 186 172 165 167 151 108 149 188 42 331 186 185 193 199 196 263 90 268 178 230 269 309 313 313 280 202
162 221 228 180 178 177 177 199 243 184 170 164 155 191 154 165 138 181 160 189 162 174 169 169 108 115 152 199 231 209 197 198 203 59 192 191 205 73 240 269 260 292 324 213 179
141 186 262 207 259 177 176 173 201 204 167 174 154 138 153 164 128 168 141 174 174 171 146 108 141 158 191 199 127 186 189 185 195 220 165 236 229 282 239 208 191 239 267 211 187
149 222 247 209 202 195 178 171 169 191 241 151 149 162 165 161 135 160 144 127 163 146 127 120 119 79 55 147 157 176 187 182 198 219 206 245 222 217 218 201 216 154 153 202 218
156 182 191 263 204 192 179 186 168 190 173 173 164 166 164 167 187 169 157 159 171 180 169 135 179 125 43 55 163 154 188 198 213 220 235 246 250 265 267 248 224 227 217 239 229
171 144 159 251 187 182 188 175 185 184 217 190 164 159 174 182 139 129 159 126 130 166 178 130 126 128 159 64 89 273 206 205 216 224 228 233 227 185 225 259 282 272 216 249 252